KUIPER-00106

导读 | 豆包

KUIPER-00106是美国亚马逊旗下柯伊伯(Kuiper)卫星互联网计划中的一颗低轨通信卫星,于2025年8月11日发射升空。该卫星属于柯伊伯星座第一代组网卫星,承载改进型相控阵天线、光学星间链路等先进通信设备,运行于近地轨道,旨在为全球提供高速低延迟的宽带互联网接入服务,是亚马逊构建全球卫星互联网网络的重要组成部分,助力推动星座组网部署进度。

基本信息
目录编号:
65144
目录名称:
KUIPER-00106
国际标识:
2025-171N
轨道中心:
EARTH
卫星名称:
KUIPER-00106
卫星全名:
KUIPER-00106
卫星状态:
在轨 (已飞行204 天)
发射日期:
2025-08-11 UTC
国别 :
美国 (US)
星等 :
--
轨道信息
数据来源 国际轨道数据
星历时间: 2026-03-02T21:37:35+0800
11小时前
查看轨道信息
半长轴: 6953.952km
偏心率: 0.0007891
轨道倾角: 51.894°
近地点辐角 77.380°
升交点赤经 187.332°
平近点角 282.805°
近地点: 570.327km
远地点: 581.303km
周期: 96.185分钟
每日圈数: 14.971153
详细信息
使用方式:
暂无
2D轨道图
3D轨道图
轨道高度分析图
轨道倾角分析图
轨道综合分析图
查看轨道综合分析图